Temp
56 56 56 56 57 56 56 56 56 56 55 54 54 54 54 54 54 55 55 56 56 56 56 56 55 54 53 53 53 53 53 53 53 55 56 56 56 56 58 58 58 58 58 57 57 57 57 57 57 56 56 56 56 56 56 57 57 56 57 57 57 57 56 56 56 55 55 55 54
56 56 56 57 57 56 56 56 56 56 55 55 55 55 54 54 54 55 56 56 56 56 56 55 54 53 53 53 53 53 53 53 53 54 54 54 55 56 56 56 57 57 57 57 56 56 56 55 55 55 56 56 56 56 56 57 57 56 56 56 56 56 56 55 55 55 54 54 54
56 56 56 56 56 55 55 55 55 55 54 54 54 54 55 55 55 55 56 56 57 57 56 55 54 53 53 53 53 53 53 53 53 54 54 54 54 54 55 55 56 57 58 57 57 56 55 54 54 55 56 56 56 56 55 56 56 56 56 55 55 55 55 55 54 54 54 54 53
55 56 56 56 55 55 55 55 55 54 54 54 53 54 55 55 55 56 56 55 56 55 55 54 53 53 53 53 53 53 54 54 54 54 54 54 54 54 54 54 55 56 56 57 56 55 54 53 54 55 55 55 56 56 55 55 55 55 55 54 54 54 54 53 53 53 53 52 52
55 56 56 56 55 55 56 56 55 54 54 54 54 54 54 54 54 55 55 54 53 54 54 54 53 53 53 54 54 54 54 55 55 54 54 54 54 54 54 54 54 55 55 56 56 56 55 54 54 54 54 55 56 56 55 55 54 54 54 54 54 54 53 53 52 52 52 51 51
55 55 55 55 55 55 56 56 55 54 54 54 54 54 54 55 55 55 54 53 53 53 54 55 54 54 54 55 55 54 54 54 54 53 53 53 53 54 54 54 54 54 55 55 55 55 55 55 54 54 54 55 55 55 55 55 54 53 53 53 52 52 52 51 51 51 51 50 50
56 56 56 55 56 56 56 55 55 54 54 55 54 54 54 54 54 54 54 53 53 53 54 55 55 55 54 54 54 54 54 53 53 53 54 54 53 54 54 54 53 53 53 53 53 53 54 54 54 54 55 55 55 54 54 54 53 53 52 51 51 51 51 50 51 51 50 50 49
58 58 58 58 57 57 56 56 55 55 55 55 54 54 53 53 53 53 53 53 53 53 54 55 54 54 54 54 54 54 54 54 54 54 53 53 53 53 53 53 52 53 53 53 52 53 53 53 54 54 53 54 54 53 53 53 52 51 50 49 50 50 50 50 51 50 50 49 50
58 58 58 58 57 57 56 56 55 55 54 54 53 54 54 54 53 52 52 52 53 54 54 54 54 54 55 55 54 54 54 54 54 54 54 54 53 53 52 52 52 52 52 52 52 52 53 53 53 53 53 53 53 53 53 53 52 51 50 49 49 50 50 50 50 50 49 50 50
57 57 57 57 56 56 56 56 55 55 54 54 54 54 54 55 54 52 52 52 53 54 54 55 55 55 55 54 54 54 54 54 53 53 52 53 53 52 52 51 51 51 51 52 52 52 52 52 52 52 52 52 52 52 52 53 52 51 50 50 50 50 50 50 50 50 50 51 51
56 57 57 57 56 56 56 55 55 55 55 54 54 54 54 56 54 53 52 52 53 54 55 55 55 54 54 53 53 54 54 54 53 52 51 51 52 52 51 51 51 51 51 51 52 52 52 52 51 51 52 52 52 53 53 53 52 51 51 51 51 51 51 50 50 50 50 51 51
57 57 57 57 57 56 55 54 55 55 54 54 54 54 54 54 54 54 53 53 54 55 55 55 54 54 53 54 54 54 54 53 52 51 51 50 50 51 51 51 51 51 51 52 52 52 52 52 52 52 52 52 52 53 53 53 52 52 51 51 51 51 51 51 51 51 50 50 51
57 57 57 57 57 56 55 55 55 54 54 54 54 54 53 53 54 54 54 53 54 54 54 54 53 52 52 53 53 53 53 52 51 51 51 50 50 50 51 51 51 51 51 52 52 52 52 52 52 52 52 52 52 53 53 53 52 52 52 51 51 51 51 51 51 50 50 49 50
57 57 57 57 57 56 55 55 55 54 54 53 53 52 52 52 53 54 54 54 54 54 53 52 52 52 52 51 51 51 51 51 50 50 50 50 50 50 50 51 51 51 51 52 52 52 52 52 53 53 53 53 52 53 53 53 53 52 52 52 51 51 51 51 50 50 50 49 49
57 57 57 57 57 56 56 55 54 54 53 53 52 52 51 52 53 54 54 54 54 53 52 51 51 52 52 52 51 50 50 50 50 50 50 50 50 51 51 51 51 52 52 52 52 53 53 53 53 53 53 53 53 53 53 53 53 52 52 52 51 51 51 50 50 50 49 49 49
56 56 56 56 57 56 56 55 54 53 53 53 53 52 52 52 53 53 54 54 53 52 51 51 51 52 52 53 51 50 49 49 49 49 49 49 50 51 51 52 52 52 52 52 53 53 53 54 54 54 54 53 53 53 53 53 53 52 52 52 51 51 51 50 50 50 49 49 49
56 56 56 56 56 56 55 55 54 53 53 53 53 53 53 53 53 53 54 54 52 52 51 51 52 52 52 52 51 50 49 49 49 49 49 49 50 51 52 52 53 53 53 53 53 53 53 54 54 54 53 53 53 53 53 53 53 52 51 51 51 51 51 51 50 50 49 49 49
56 56 56 56 56 55 55 55 54 54 53 53 54 54 54 54 54 54 54 53 52 51 51 51 52 52 51 51 50 50 49 49 49 49 50 50 51 52 53 53 53 53 53 53 53 53 54 54 53 53 53 53 53 53 53 53 52 52 51 50 50 50 50 50 50 50 50 49 49
56 56 56 56 56 56 56 56 55 54 54 54 55 55 55 55 54 54 54 53 53 52 52 52 52 52 51 51 50 50 51 50 50 51 51 52 52 53 53 53 53 53 53 53 53 53 54 53 53 53 53 53 53 53 53 52 52 51 51 50 50 49 49 50 50 50 50 50 50
56 56 56 57 56 56 56 56 55 55 55 55 55 55 55 55 55 54 54 54 53 54 54 54 53 53 52 51 50 50 51 51 52 52 53 53 53 53 53 53 53 53 53 53 53 53 53 53 53 53 53 52 52 52 51 51 51 51 50 50 50 49 49 50 50 50 50 50 50
56 56 57 57 57 56 56 56 56 56 55 55 55 55 55 55 55 55 54 54 55 55 55 55 54 53 52 51 51 51 52 53 53 53 54 54 54 54 54 54 53 53 53 53 53 53 53 53 52 52 52 52 51 51 51 51 50 50 49 50 50 50 49 50 50 50 50 50 50
56 57 57 57 57 57 57 56 56 56 56 55 55 55 55 55 55 55 55 55 55 55 54 54 53 53 52 52 52 52 53 54 54 55 55 54 54 54 54 53 53 52 52 52 52 52 52 52 52 52 51 51 51 51 50 50 49 49 49 49 49 49 49 49 49 49 49 49 49
57 57 57 57 57 57 57 56 56 56 55 55 55 55 55 55 55 55 55 55 55 55 54 53 53 53 53 53 54 54 54 55 55 55 55 54 54 54 53 52 52 51 51 51 50 50 50 50 50 50 51 51 50 50 50 50 49 48 48 48 48 48 48 48 48 48 48 48 48
57 57 57 57 57 57 57 56 56 55 55 55 55 55 55 55 55 55 55 56 55 54 54 54 54 54 55 56 56 55 55 55 54 54 54 54 54 53 52 52 51 50 49 49 50 50 50 48 48 49 50 50 50 49 49 49 48 48 48 47 47 47 47 47 47 48 48 47 47
57 57 57 57 57 57 56 56 55 55 55 55 55 55 55 55 55 55 55 55 55 54 54 54 55 56 56 56 56 55 55 54 54 53 53 53 53 52 52 51 50 49 50 53 57 57 56 53 51 49 49 49 49 48 48 48 48 47 48 47 47 46 46 46 47 47 47 46 46
57 57 57 57 57 56 56 55 55 55 55 55 55 55 55 55 55 55 55 54 54 54 55 54 55 56 56 55 55 54 54 54 54 53 53 53 52 51 50 50 49 49 51 57 59 60 59 58 56 53 49 47 47 48 48 47 47 47 47 46 46 46 46 46 46 46 47 47 46
57 57 57 57 56 56 56 55 55 55 56 56 56 56 56 56 56 56 55 54 53 53 54 54 55 56 56 54 54 53 53 53 53 53 53 52 51 50 49 48 48 49 52 58 59 60 59 59 58 55 52 47 47 47 47 47 47 47 46 46 46 46 46 47 47 47 47 47 46
57 57 56 56 56 56 56 55 55 55 56 56 56 56 56 56 56 55 55 54 52 52 52 53 55 55 54 53 53 53 52 52 52 52 53 52 51 50 48 48 47 50 54 59 59 59 59 59 58 57 55 50 47 47 47 46 46 46 46 45 45 45 45 46 47 47 47 46 46
57 57 56 56 56 56 56 55 55 55 56 56 57 57 57 56 56 55 55 54 52 51 51 53 53 53 52 53 53 52 52 52 52 52 51 51 50 49 48 47 47 51 56 60 59 59 59 59 59 58 57 54 49 47 47 46 46 45 45 45 44 44 44 45 45 45 45 45 45
57 56 56 56 56 56 56 55 56 56 56 57 57 57 56 56 56 55 55 54 53 52 51 51 51 51 51 53 53 52 51 51 51 52 51 51 50 49 48 48 48 51 55 59 59 59 59 59 59 58 57 56 51 47 46 46 45 45 45 44 44 44 44 44 45 45 45 44 45
57 56 56 56 56 56 56 56 56 56 57 57 57 56 56 55 55 55 55 55 54 54 53 51 50 50 50 51 51 51 50 50 51 51 51 51 51 49 48 47 47 50 55 59 59 59 59 59 58 58 58 57 52 48 45 45 45 45 44 44 44 44 44 45 45 45 45 45 45
56 56 56 56 56 56 56 56 56 56 56 56 56 56 56 55 55 55 55 55 55 54 52 50 50 50 50 50 50 50 50 50 51 51 51 50 49 48 47 47 47 50 54 59 59 59 59 59 58 58 58 57 53 48 46 46 45 45 45 45 45 45 45 45 44 45 45 45 45
56 56 56 56 56 56 56 56 56 56 56 56 56 56 56 55 55 55 55 55 55 54 52 50 50 50 49 49 49 49 50 51 51 52 52 51 49 48 47 47 47 51 56 59 58 58 58 58 58 58 58 58 53 48 45 45 45 45 45 45 45 45 45 45 44 44 44 44 44
56 56 56 56 56 56 56 56 56 56 56 56 56 56 56 55 55 55 55 55 55 53 52 51 50 50 50 50 50 50 51 52 52 51 50 50 49 48 47 45 47 52 58 58 58 58 58 58 58 58 58 57 52 48 46 46 45 45 44 44 44 44 44 44 45 45 44 45 44
55 55 56 56 56 56 56 56 56 56 55 55 55 55 55 55 54 54 55 55 55 54 52 51 51 51 50 50 50 51 51 52 52 51 50 49 49 48 47 45 46 52 58 58 58 58 58 58 58 58 58 55 50 46 45 45 45 45 44 44 44 44 45 45 44 44 44 45 44
55 55 55 56 56 56 56 56 55 55 55 55 55 55 55 54 54 55 55 55 55 54 54 52 51 51 50 50 51 51 52 52 52 51 51 50 49 47 46 45 47 52 57 58 58 58 58 58 58 58 56 52 47 45 45 45 45 44 44 44 44 44 44 44 44 44 44 44 44
55 55 55 55 56 56 56 55 55 55 55 55 55 55 55 54 55 55 55 55 54 54 54 54 52 51 50 50 51 51 52 52 52 52 51 51 50 48 47 46 46 51 56 58 58 58 58 58 58 57 55 49 45 45 45 45 44 44 43 43 43 43 43 43 43 43 44 44 45
55 55 55 55 55 56 56 55 55 54 54 55 55 55 55 55 55 55 55 55 54 54 54 54 52 51 50 50 51 51 52 52 53 52 52 51 50 49 47 46 46 49 54 57 58 58 58 58 58 57 53 47 45 44 45 45 44 43 43 42 42 42 42 42 42 42 43 45 50
55 55 55 55 55 55 55 55 54 54 54 55 55 55 55 55 55 55 55 55 54 54 54 54 52 51 51 52 52 52 52 52 53 53 52 51 51 50 49 47 47 49 52 57 57 58 58 58 58 57 55 49 45 45 45 45 44 43 43 42 42 42 42 41 41 41 42 46 53
55 55 55 54 55 55 55 55 54 54 55 55 55 55 55 55 55 55 55 55 55 55 55 54 52 51 52 54 52 51 51 52 52 52 53 52 52 53 52 49 47 49 52 56 57 57 58 58 58 57 55 49 46 45 45 45 44 43 42 42 42 41 41 41 41 41 41 43 49
55 55 55 54 55 55 55 54 54 55 55 55 55 55 55 55 55 55 55 55 54 55 55 54 52 51 52 54 53 52 51 51 51 52 53 53 53 54 53 49 48 48 50 54 56 57 57 58 58 58 56 50 46 45 45 45 44 43 42 41 41 41 41 41 41 41 41 40 42
MSLP
1017.58 1017.70 1017.78 1017.90 1017.94 1018.02 1018.18 1018.34 1018.46 1018.62 1018.82 1018.94 1019.06 1019.18 1019.30 1019.34 1019.38 1019.42 1019.38 1019.38 1019.38 1019.46 1019.54 1019.66 1019.82 1019.94 1020.02 1020.10 1020.18 1020.18 1020.18 1020.18 1020.26 1020.34 1020.46 1020.54 1020.62 1020.66 1020.66 1020.70 1020.78 1020.90 1021.02 1021.14 1021.22 1021.30 1021.38 1021.46 1021.50 1021.58 1021.62 1021.66 1021.70 1021.78 1021.90 1021.94 1022.02 1022.14 1022.22 1022.34 1022.42 1022.46 1022.46 1022.58 1022.66 1022.74 1022.74 1022.74 1022.74
1017.62 1017.74 1017.78 1017.90 1017.94 1018.06 1018.22 1018.34 1018.50 1018.70 1018.90 1019.02 1019.10 1019.22 1019.30 1019.38 1019.38 1019.42 1019.38 1019.38 1019.42 1019.50 1019.62 1019.78 1019.94 1020.02 1020.14 1020.18 1020.22 1020.26 1020.26 1020.34 1020.38 1020.46 1020.54 1020.66 1020.74 1020.74 1020.74 1020.82 1020.90 1020.98 1021.10 1021.22 1021.34 1021.46 1021.54 1021.58 1021.62 1021.70 1021.74 1021.82 1021.86 1021.90 1022.02 1022.06 1022.14 1022.26 1022.38 1022.50 1022.62 1022.66 1022.70 1022.74 1022.78 1022.86 1022.90 1022.90 1022.94
1017.62 1017.74 1017.82 1017.90 1018.02 1018.14 1018.30 1018.42 1018.62 1018.78 1018.94 1019.06 1019.18 1019.30 1019.34 1019.38 1019.38 1019.42 1019.42 1019.42 1019.46 1019.54 1019.70 1019.90 1020.02 1020.14 1020.18 1020.26 1020.34 1020.34 1020.42 1020.46 1020.50 1020.58 1020.66 1020.74 1020.86 1020.90 1020.94 1020.98 1021.02 1021.14 1021.22 1021.34 1021.46 1021.58 1021.66 1021.70 1021.74 1021.82 1021.90 1021.90 1021.98 1022.06 1022.18 1022.26 1022.30 1022.42 1022.54 1022.66 1022.74 1022.82 1022.90 1022.90 1022.94 1022.98 1023.02 1023.14 1023.18
1017.66 1017.78 1017.90 1017.98 1018.06 1018.18 1018.34 1018.46 1018.66 1018.82 1018.98 1019.14 1019.22 1019.30 1019.38 1019.42 1019.42 1019.46 1019.46 1019.50 1019.58 1019.66 1019.82 1019.98 1020.10 1020.22 1020.30 1020.34 1020.42 1020.46 1020.50 1020.54 1020.62 1020.70 1020.78 1020.90 1020.98 1021.02 1021.06 1021.14 1021.22 1021.30 1021.42 1021.46 1021.58 1021.66 1021.74 1021.78 1021.86 1021.90 1021.94 1022.02 1022.10 1022.18 1022.30 1022.38 1022.46 1022.58 1022.66 1022.74 1022.86 1022.90 1023.02 1023.10 1023.18 1023.18 1023.30 1023.34 1023.46
1017.66 1017.78 1017.90 1017.98 1018.10 1018.22 1018.34 1018.54 1018.70 1018.86 1019.02 1019.14 1019.26 1019.34 1019.42 1019.46 1019.50 1019.54 1019.58 1019.66 1019.74 1019.78 1019.90 1020.02 1020.18 1020.30 1020.34 1020.42 1020.46 1020.54 1020.62 1020.70 1020.74 1020.86 1020.94 1021.02 1021.14 1021.18 1021.22 1021.30 1021.38 1021.50 1021.58 1021.62 1021.74 1021.78 1021.82 1021.90 1021.94 1022.02 1022.06 1022.18 1022.22 1022.34 1022.46 1022.54 1022.62 1022.74 1022.86 1022.90 1023.02 1023.10 1023.22 1023.30 1023.42 1023.46 1023.50 1023.54 1023.62
1017.66 1017.78 1017.90 1018.02 1018.14 1018.30 1018.42 1018.62 1018.74 1018.90 1019.02 1019.18 1019.30 1019.46 1019.50 1019.54 1019.58 1019.62 1019.70 1019.78 1019.82 1019.90 1019.98 1020.06 1020.18 1020.34 1020.38 1020.46 1020.58 1020.66 1020.74 1020.86 1020.90 1021.02 1021.14 1021.22 1021.30 1021.34 1021.42 1021.50 1021.58 1021.62 1021.70 1021.78 1021.82 1021.90 1021.94 1022.02 1022.06 1022.14 1022.18 1022.30 1022.38 1022.46 1022.58 1022.66 1022.78 1022.90 1023.02 1023.18 1023.22 1023.30 1023.42 1023.50 1023.58 1023.62 1023.66 1023.74 1023.74
1017.62 1017.78 1017.90 1018.06 1018.18 1018.34 1018.46 1018.66 1018.82 1018.98 1019.10 1019.26 1019.38 1019.46 1019.54 1019.62 1019.66 1019.74 1019.78 1019.86 1019.90 1019.94 1020.02 1020.14 1020.26 1020.34 1020.46 1020.62 1020.70 1020.78 1020.90 1020.98 1021.06 1021.14 1021.22 1021.34 1021.42 1021.50 1021.62 1021.66 1021.70 1021.74 1021.86 1021.90 1021.94 1022.02 1022.06 1022.14 1022.18 1022.26 1022.34 1022.38 1022.50 1022.62 1022.74 1022.82 1022.94 1023.06 1023.22 1023.34 1023.38 1023.46 1023.58 1023.62 1023.66 1023.74 1023.74 1023.82 1023.82
1017.62 1017.74 1017.86 1018.02 1018.18 1018.34 1018.54 1018.74 1018.90 1019.02 1019.22 1019.34 1019.46 1019.54 1019.62 1019.66 1019.74 1019.78 1019.86 1019.90 1019.98 1020.02 1020.14 1020.22 1020.34 1020.46 1020.54 1020.70 1020.78 1020.90 1020.98 1021.06 1021.18 1021.30 1021.38 1021.46 1021.54 1021.62 1021.74 1021.74 1021.82 1021.90 1021.94 1022.02 1022.02 1022.10 1022.18 1022.22 1022.30 1022.38 1022.46 1022.54 1022.66 1022.78 1022.90 1022.98 1023.10 1023.22 1023.38 1023.50 1023.58 1023.62 1023.62 1023.70 1023.74 1023.78 1023.82 1023.86 1023.90
1017.62 1017.74 1017.90 1018.02 1018.18 1018.38 1018.58 1018.74 1018.94 1019.14 1019.30 1019.42 1019.50 1019.58 1019.62 1019.70 1019.78 1019.90 1019.98 1020.02 1020.06 1020.14 1020.18 1020.30 1020.38 1020.46 1020.62 1020.74 1020.86 1020.98 1021.06 1021.18 1021.30 1021.38 1021.46 1021.54 1021.66 1021.74 1021.86 1021.90 1021.94 1022.02 1022.02 1022.06 1022.14 1022.18 1022.30 1022.34 1022.42 1022.46 1022.58 1022.66 1022.78 1022.90 1023.02 1023.10 1023.26 1023.38 1023.50 1023.58 1023.62 1023.70 1023.70 1023.74 1023.74 1023.82 1023.86 1023.90 1023.98
1017.58 1017.74 1017.90 1018.06 1018.26 1018.42 1018.62 1018.82 1019.02 1019.18 1019.38 1019.46 1019.58 1019.62 1019.70 1019.74 1019.86 1019.94 1020.02 1020.10 1020.18 1020.22 1020.30 1020.38 1020.46 1020.62 1020.74 1020.86 1020.94 1021.06 1021.18 1021.26 1021.38 1021.50 1021.62 1021.70 1021.78 1021.86 1021.94 1022.02 1022.06 1022.10 1022.14 1022.18 1022.18 1022.26 1022.34 1022.42 1022.50 1022.62 1022.70 1022.74 1022.90 1023.02 1023.10 1023.18 1023.30 1023.46 1023.54 1023.62 1023.62 1023.74 1023.78 1023.78 1023.86 1023.90 1023.98 1024.02 1024.06
1017.58 1017.70 1017.86 1018.02 1018.22 1018.46 1018.62 1018.90 1019.10 1019.30 1019.46 1019.54 1019.66 1019.74 1019.78 1019.82 1019.90 1020.02 1020.14 1020.18 1020.30 1020.38 1020.46 1020.54 1020.62 1020.74 1020.86 1020.98 1021.10 1021.18 1021.30 1021.42 1021.50 1021.62 1021.74 1021.78 1021.90 1021.98 1022.02 1022.10 1022.18 1022.18 1022.22 1022.26 1022.30 1022.34 1022.38 1022.46 1022.58 1022.66 1022.74 1022.82 1022.94 1023.02 1023.18 1023.26 1023.38 1023.46 1023.58 1023.62 1023.70 1023.74 1023.82 1023.90 1023.94 1024.02 1024.06 1024.18 1024.22
1017.54 1017.70 1017.82 1018.02 1018.18 1018.46 1018.70 1018.94 1019.18 1019.34 1019.54 1019.62 1019.74 1019.82 1019.90 1019.90 1019.98 1020.10 1020.22 1020.34 1020.46 1020.54 1020.62 1020.66 1020.74 1020.86 1020.94 1021.02 1021.18 1021.30 1021.42 1021.54 1021.62 1021.74 1021.82 1021.90 1021.98 1022.02 1022.10 1022.18 1022.22 1022.26 1022.30 1022.34 1022.34 1022.38 1022.46 1022.54 1022.62 1022.74 1022.82 1022.90 1022.98 1023.10 1023.18 1023.30 1023.42 1023.50 1023.62 1023.70 1023.74 1023.82 1023.90 1023.98 1024.06 1024.14 1024.18 1024.30 1024.34
1017.46 1017.70 1017.86 1018.02 1018.18 1018.46 1018.74 1018.94 1019.18 1019.42 1019.58 1019.70 1019.78 1019.90 1019.98 1020.02 1020.10 1020.18 1020.34 1020.46 1020.62 1020.66 1020.74 1020.82 1020.90 1020.98 1021.06 1021.18 1021.30 1021.42 1021.54 1021.66 1021.74 1021.86 1021.90 1022.02 1022.06 1022.10 1022.18 1022.22 1022.30 1022.34 1022.34 1022.38 1022.42 1022.46 1022.50 1022.62 1022.66 1022.74 1022.86 1022.94 1023.06 1023.18 1023.26 1023.30 1023.46 1023.54 1023.66 1023.74 1023.86 1023.94 1024.02 1024.10 1024.18 1024.26 1024.34 1024.42 1024.46
1017.46 1017.62 1017.82 1018.02 1018.22 1018.46 1018.70 1018.98 1019.18 1019.42 1019.62 1019.74 1019.86 1019.94 1020.02 1020.14 1020.18 1020.30 1020.42 1020.58 1020.66 1020.78 1020.90 1020.98 1021.06 1021.14 1021.18 1021.30 1021.46 1021.58 1021.70 1021.78 1021.90 1021.94 1022.02 1022.06 1022.14 1022.18 1022.26 1022.30 1022.34 1022.38 1022.42 1022.42 1022.46 1022.46 1022.54 1022.62 1022.74 1022.82 1022.90 1023.02 1023.14 1023.22 1023.30 1023.38 1023.50 1023.62 1023.70 1023.82 1023.94 1024.02 1024.14 1024.22 1024.30 1024.34 1024.46 1024.54 1024.58
1017.42 1017.62 1017.82 1017.98 1018.18 1018.42 1018.70 1018.94 1019.18 1019.46 1019.62 1019.78 1019.90 1020.02 1020.10 1020.18 1020.30 1020.42 1020.50 1020.66 1020.74 1020.90 1021.02 1021.14 1021.22 1021.30 1021.42 1021.50 1021.62 1021.70 1021.78 1021.90 1021.94 1022.02 1022.10 1022.18 1022.18 1022.26 1022.34 1022.38 1022.42 1022.46 1022.46 1022.46 1022.50 1022.50 1022.58 1022.70 1022.74 1022.86 1022.94 1023.06 1023.18 1023.26 1023.34 1023.46 1023.58 1023.70 1023.78 1023.90 1024.02 1024.14 1024.18 1024.34 1024.38 1024.46 1024.54 1024.62 1024.70
1017.42 1017.62 1017.78 1017.98 1018.18 1018.42 1018.66 1018.94 1019.18 1019.46 1019.66 1019.82 1019.94 1020.02 1020.14 1020.22 1020.34 1020.46 1020.58 1020.70 1020.86 1021.02 1021.14 1021.26 1021.42 1021.54 1021.62 1021.66 1021.74 1021.82 1021.90 1021.98 1022.02 1022.06 1022.18 1022.26 1022.30 1022.34 1022.38 1022.42 1022.46 1022.50 1022.50 1022.50 1022.54 1022.62 1022.66 1022.74 1022.78 1022.90 1023.02 1023.10 1023.26 1023.34 1023.46 1023.58 1023.66 1023.78 1023.90 1024.02 1024.06 1024.18 1024.30 1024.38 1024.46 1024.54 1024.62 1024.66 1024.78
1017.34 1017.58 1017.74 1017.94 1018.18 1018.42 1018.66 1018.90 1019.18 1019.42 1019.62 1019.82 1019.94 1020.06 1020.14 1020.26 1020.38 1020.50 1020.62 1020.78 1020.94 1021.10 1021.26 1021.42 1021.58 1021.70 1021.78 1021.86 1021.90 1021.94 1021.98 1022.02 1022.06 1022.14 1022.22 1022.30 1022.34 1022.38 1022.42 1022.46 1022.46 1022.50 1022.58 1022.62 1022.62 1022.70 1022.74 1022.78 1022.86 1022.98 1023.06 1023.18 1023.30 1023.46 1023.58 1023.66 1023.74 1023.90 1023.98 1024.06 1024.18 1024.26 1024.34 1024.42 1024.54 1024.62 1024.70 1024.74 1024.86
1017.30 1017.50 1017.74 1017.90 1018.14 1018.38 1018.62 1018.90 1019.18 1019.42 1019.62 1019.78 1019.94 1020.06 1020.18 1020.26 1020.38 1020.54 1020.70 1020.90 1021.06 1021.22 1021.38 1021.54 1021.74 1021.82 1021.90 1021.94 1021.98 1022.02 1022.02 1022.06 1022.14 1022.18 1022.22 1022.26 1022.34 1022.34 1022.42 1022.46 1022.50 1022.54 1022.58 1022.62 1022.74 1022.78 1022.90 1022.94 1023.02 1023.10 1023.18 1023.30 1023.42 1023.54 1023.66 1023.78 1023.90 1023.98 1024.10 1024.18 1024.30 1024.34 1024.46 1024.54 1024.62 1024.70 1024.78 1024.90 1024.94
1017.22 1017.46 1017.66 1017.90 1018.10 1018.34 1018.62 1018.86 1019.14 1019.38 1019.58 1019.74 1019.90 1020.02 1020.14 1020.26 1020.42 1020.58 1020.74 1020.98 1021.14 1021.30 1021.46 1021.62 1021.78 1021.90 1021.94 1021.98 1022.02 1022.02 1022.02 1022.06 1022.14 1022.18 1022.18 1022.22 1022.26 1022.34 1022.42 1022.46 1022.54 1022.58 1022.62 1022.70 1022.78 1022.86 1022.94 1023.02 1023.14 1023.22 1023.34 1023.46 1023.58 1023.70 1023.82 1023.90 1024.02 1024.14 1024.22 1024.34 1024.42 1024.50 1024.58 1024.66 1024.74 1024.82 1024.90 1024.98 1025.06
1017.18 1017.38 1017.62 1017.82 1018.02 1018.30 1018.58 1018.86 1019.10 1019.34 1019.54 1019.74 1019.90 1020.02 1020.14 1020.26 1020.38 1020.58 1020.78 1021.02 1021.18 1021.34 1021.46 1021.62 1021.74 1021.90 1021.98 1022.02 1022.02 1022.02 1022.02 1022.06 1022.06 1022.10 1022.14 1022.18 1022.26 1022.34 1022.42 1022.50 1022.62 1022.66 1022.74 1022.82 1022.90 1022.98 1023.10 1023.18 1023.30 1023.38 1023.50 1023.62 1023.74 1023.90 1023.98 1024.10 1024.18 1024.34 1024.42 1024.50 1024.62 1024.66 1024.74 1024.82 1024.90 1024.98 1025.02 1025.14 1025.22
1017.14 1017.34 1017.54 1017.74 1018.02 1018.26 1018.54 1018.82 1019.06 1019.30 1019.50 1019.74 1019.90 1020.02 1020.14 1020.26 1020.42 1020.58 1020.78 1020.94 1021.14 1021.30 1021.46 1021.58 1021.70 1021.82 1021.94 1022.02 1022.02 1022.02 1022.02 1022.02 1022.02 1022.06 1022.14 1022.18 1022.30 1022.38 1022.46 1022.58 1022.66 1022.74 1022.86 1022.94 1023.02 1023.14 1023.22 1023.30 1023.46 1023.54 1023.66 1023.78 1023.90 1024.06 1024.18 1024.26 1024.42 1024.54 1024.62 1024.70 1024.78 1024.90 1024.94 1024.98 1025.06 1025.18 1025.26 1025.34 1025.46
1017.06 1017.30 1017.50 1017.74 1017.98 1018.22 1018.50 1018.78 1019.02 1019.30 1019.50 1019.74 1019.90 1020.06 1020.14 1020.30 1020.46 1020.62 1020.78 1020.94 1021.10 1021.30 1021.46 1021.58 1021.66 1021.78 1021.90 1021.94 1021.98 1021.98 1021.98 1021.94 1021.98 1022.02 1022.10 1022.22 1022.34 1022.46 1022.54 1022.62 1022.74 1022.86 1022.98 1023.06 1023.18 1023.30 1023.38 1023.46 1023.62 1023.70 1023.82 1023.98 1024.10 1024.22 1024.34 1024.46 1024.62 1024.74 1024.86 1024.94 1025.02 1025.10 1025.18 1025.22 1025.30 1025.38 1025.50 1025.62 1025.66
1017.02 1017.22 1017.46 1017.74 1017.98 1018.22 1018.46 1018.74 1019.02 1019.26 1019.46 1019.74 1019.94 1020.06 1020.18 1020.34 1020.50 1020.66 1020.78 1020.94 1021.14 1021.30 1021.46 1021.58 1021.62 1021.74 1021.78 1021.82 1021.86 1021.86 1021.90 1021.90 1021.94 1022.02 1022.14 1022.30 1022.42 1022.54 1022.66 1022.74 1022.90 1023.02 1023.14 1023.22 1023.34 1023.46 1023.54 1023.62 1023.74 1023.86 1023.98 1024.14 1024.26 1024.38 1024.50 1024.62 1024.74 1024.90 1025.02 1025.10 1025.22 1025.30 1025.38 1025.46 1025.50 1025.62 1025.70 1025.78 1025.86
1016.90 1017.18 1017.46 1017.70 1017.94 1018.18 1018.46 1018.70 1018.94 1019.22 1019.46 1019.70 1019.90 1020.06 1020.18 1020.34 1020.54 1020.66 1020.78 1020.98 1021.14 1021.30 1021.46 1021.54 1021.62 1021.66 1021.70 1021.70 1021.74 1021.74 1021.78 1021.90 1021.98 1022.10 1022.22 1022.38 1022.54 1022.66 1022.78 1022.94 1023.02 1023.18 1023.26 1023.38 1023.46 1023.58 1023.66 1023.74 1023.90 1024.02 1024.10 1024.22 1024.34 1024.50 1024.62 1024.74 1024.90 1025.02 1025.14 1025.26 1025.38 1025.46 1025.58 1025.62 1025.74 1025.78 1025.90 1025.98 1026.02
1016.86 1017.14 1017.38 1017.62 1017.90 1018.10 1018.38 1018.66 1018.90 1019.18 1019.42 1019.66 1019.90 1020.02 1020.18 1020.34 1020.54 1020.70 1020.82 1020.98 1021.14 1021.30 1021.38 1021.46 1021.50 1021.54 1021.58 1021.62 1021.62 1021.70 1021.78 1021.90 1022.02 1022.18 1022.34 1022.50 1022.66 1022.78 1022.90 1023.06 1023.18 1023.30 1023.38 1023.42 1023.42 1023.50 1023.66 1023.82 1023.94 1024.06 1024.22 1024.34 1024.46 1024.62 1024.74 1024.90 1025.02 1025.14 1025.22 1025.34 1025.46 1025.58 1025.70 1025.82 1025.90 1025.94 1026.02 1026.06 1026.14
1016.78 1017.06 1017.30 1017.58 1017.78 1018.02 1018.34 1018.62 1018.86 1019.06 1019.30 1019.58 1019.82 1020.02 1020.18 1020.38 1020.50 1020.66 1020.78 1020.98 1021.10 1021.22 1021.30 1021.38 1021.42 1021.46 1021.46 1021.54 1021.62 1021.70 1021.82 1021.90 1022.10 1022.26 1022.42 1022.62 1022.74 1022.94 1023.06 1023.18 1023.30 1023.38 1023.42 1023.38 1023.42 1023.54 1023.66 1023.82 1023.98 1024.14 1024.30 1024.46 1024.62 1024.74 1024.90 1025.02 1025.10 1025.18 1025.30 1025.42 1025.50 1025.62 1025.74 1025.90 1026.02 1026.06 1026.14 1026.18 1026.18
1016.70 1017.02 1017.26 1017.50 1017.74 1018.02 1018.30 1018.54 1018.74 1019.02 1019.22 1019.46 1019.74 1019.90 1020.10 1020.30 1020.46 1020.66 1020.82 1020.98 1021.10 1021.18 1021.22 1021.30 1021.34 1021.42 1021.46 1021.54 1021.62 1021.74 1021.90 1021.98 1022.18 1022.34 1022.46 1022.66 1022.86 1023.06 1023.22 1023.30 1023.38 1023.46 1023.46 1023.42 1023.46 1023.62 1023.74 1023.90 1024.02 1024.18 1024.38 1024.54 1024.66 1024.82 1024.98 1025.06 1025.18 1025.26 1025.34 1025.46 1025.58 1025.70 1025.82 1025.98 1026.06 1026.18 1026.22 1026.30 1026.34
1016.62 1016.90 1017.18 1017.46 1017.70 1017.94 1018.22 1018.46 1018.70 1018.90 1019.14 1019.38 1019.62 1019.78 1020.02 1020.22 1020.42 1020.62 1020.86 1021.02 1021.10 1021.18 1021.22 1021.30 1021.30 1021.34 1021.46 1021.62 1021.70 1021.82 1021.90 1022.06 1022.22 1022.34 1022.54 1022.74 1022.94 1023.14 1023.30 1023.42 1023.46 1023.46 1023.46 1023.50 1023.58 1023.70 1023.82 1023.98 1024.10 1024.26 1024.42 1024.62 1024.74 1024.90 1025.02 1025.18 1025.26 1025.34 1025.46 1025.54 1025.62 1025.74 1025.86 1025.98 1026.06 1026.18 1026.30 1026.38 1026.38
1016.46 1016.78 1017.10 1017.34 1017.62 1017.90 1018.18 1018.42 1018.62 1018.82 1019.02 1019.26 1019.46 1019.70 1019.90 1020.14 1020.38 1020.62 1020.82 1021.02 1021.10 1021.18 1021.22 1021.26 1021.30 1021.42 1021.50 1021.62 1021.74 1021.82 1021.94 1022.10 1022.22 1022.42 1022.62 1022.86 1023.06 1023.22 1023.34 1023.46 1023.50 1023.50 1023.50 1023.54 1023.66 1023.78 1023.90 1024.02 1024.14 1024.30 1024.46 1024.62 1024.82 1024.94 1025.06 1025.18 1025.30 1025.42 1025.50 1025.62 1025.70 1025.78 1025.90 1026.02 1026.14 1026.22 1026.34 1026.42 1026.50
1016.38 1016.70 1016.98 1017.26 1017.50 1017.78 1018.02 1018.34 1018.50 1018.74 1018.94 1019.18 1019.38 1019.62 1019.86 1020.10 1020.34 1020.54 1020.74 1020.94 1021.06 1021.14 1021.18 1021.22 1021.34 1021.46 1021.54 1021.62 1021.74 1021.90 1022.02 1022.18 1022.30 1022.46 1022.66 1022.90 1023.10 1023.26 1023.38 1023.50 1023.54 1023.58 1023.58 1023.62 1023.70 1023.82 1023.94 1024.06 1024.18 1024.34 1024.50 1024.70 1024.86 1025.02 1025.14 1025.22 1025.30 1025.46 1025.58 1025.66 1025.74 1025.86 1025.94 1026.02 1026.14 1026.26 1026.34 1026.46 1026.58
1016.30 1016.62 1016.86 1017.10 1017.38 1017.66 1017.90 1018.18 1018.46 1018.66 1018.86 1019.06 1019.30 1019.54 1019.78 1020.02 1020.26 1020.46 1020.66 1020.82 1020.94 1021.06 1021.18 1021.26 1021.38 1021.50 1021.62 1021.66 1021.74 1021.90 1022.02 1022.18 1022.34 1022.50 1022.70 1022.90 1023.10 1023.30 1023.46 1023.54 1023.62 1023.62 1023.62 1023.66 1023.74 1023.90 1023.98 1024.14 1024.26 1024.38 1024.50 1024.70 1024.90 1025.02 1025.14 1025.26 1025.34 1025.46 1025.62 1025.74 1025.82 1025.90 1025.98 1026.06 1026.18 1026.26 1026.38 1026.46 1026.58
1016.18 1016.46 1016.74 1017.02 1017.30 1017.58 1017.82 1018.06 1018.34 1018.58 1018.78 1018.98 1019.22 1019.46 1019.70 1019.94 1020.18 1020.42 1020.62 1020.78 1020.90 1021.02 1021.18 1021.30 1021.46 1021.54 1021.66 1021.74 1021.86 1021.94 1022.06 1022.22 1022.34 1022.54 1022.74 1022.90 1023.14 1023.34 1023.46 1023.58 1023.62 1023.70 1023.74 1023.74 1023.82 1023.90 1024.02 1024.18 1024.26 1024.42 1024.54 1024.70 1024.86 1025.02 1025.18 1025.26 1025.38 1025.50 1025.62 1025.74 1025.82 1025.90 1025.98 1026.06 1026.18 1026.30 1026.38 1026.50 1026.62
1016.06 1016.34 1016.62 1016.90 1017.18 1017.46 1017.74 1018.02 1018.30 1018.50 1018.70 1018.90 1019.18 1019.38 1019.62 1019.90 1020.14 1020.38 1020.62 1020.74 1020.90 1021.02 1021.18 1021.34 1021.46 1021.58 1021.70 1021.78 1021.90 1021.98 1022.10 1022.22 1022.34 1022.54 1022.74 1022.94 1023.18 1023.30 1023.46 1023.62 1023.66 1023.70 1023.74 1023.74 1023.86 1023.94 1024.06 1024.18 1024.34 1024.46 1024.58 1024.70 1024.90 1025.06 1025.18 1025.30 1025.42 1025.50 1025.62 1025.74 1025.82 1025.90 1026.02 1026.10 1026.18 1026.34 1026.42 1026.50 1026.58
1015.98 1016.22 1016.50 1016.74 1017.02 1017.30 1017.62 1017.90 1018.18 1018.42 1018.62 1018.86 1019.10 1019.30 1019.58 1019.82 1020.06 1020.34 1020.54 1020.70 1020.86 1021.02 1021.18 1021.34 1021.46 1021.50 1021.62 1021.74 1021.86 1021.98 1022.10 1022.18 1022.34 1022.54 1022.74 1023.02 1023.18 1023.30 1023.46 1023.62 1023.70 1023.70 1023.70 1023.78 1023.90 1024.02 1024.10 1024.22 1024.34 1024.46 1024.54 1024.70 1024.90 1025.06 1025.18 1025.30 1025.46 1025.58 1025.66 1025.78 1025.90 1025.98 1026.02 1026.10 1026.18 1026.30 1026.38 1026.46 1026.54
1015.86 1016.10 1016.34 1016.62 1016.90 1017.18 1017.50 1017.78 1018.02 1018.30 1018.50 1018.74 1018.98 1019.22 1019.46 1019.74 1019.98 1020.22 1020.42 1020.62 1020.82 1021.02 1021.18 1021.30 1021.42 1021.50 1021.62 1021.74 1021.82 1021.90 1022.02 1022.18 1022.38 1022.62 1022.78 1022.98 1023.18 1023.30 1023.46 1023.62 1023.70 1023.70 1023.70 1023.78 1023.90 1024.02 1024.10 1024.22 1024.34 1024.46 1024.54 1024.74 1024.94 1025.14 1025.22 1025.34 1025.54 1025.66 1025.78 1025.90 1025.98 1026.06 1026.14 1026.18 1026.26 1026.34 1026.42 1026.46 1026.58
1015.66 1015.94 1016.22 1016.46 1016.74 1017.06 1017.34 1017.66 1017.94 1018.18 1018.42 1018.66 1018.86 1019.10 1019.34 1019.62 1019.90 1020.14 1020.38 1020.58 1020.78 1020.98 1021.14 1021.26 1021.38 1021.50 1021.62 1021.74 1021.82 1021.90 1022.02 1022.14 1022.34 1022.58 1022.74 1022.94 1023.14 1023.30 1023.46 1023.62 1023.70 1023.70 1023.70 1023.78 1023.90 1024.02 1024.10 1024.22 1024.34 1024.46 1024.62 1024.82 1025.02 1025.18 1025.30 1025.46 1025.62 1025.74 1025.90 1026.02 1026.14 1026.18 1026.22 1026.34 1026.42 1026.46 1026.50 1026.54 1026.62
1015.54 1015.78 1016.06 1016.34 1016.62 1016.90 1017.18 1017.50 1017.78 1018.06 1018.34 1018.50 1018.74 1018.98 1019.26 1019.54 1019.82 1020.06 1020.30 1020.54 1020.74 1020.90 1021.02 1021.18 1021.30 1021.46 1021.58 1021.66 1021.74 1021.86 1021.94 1022.10 1022.34 1022.54 1022.74 1022.90 1023.10 1023.30 1023.46 1023.62 1023.70 1023.74 1023.74 1023.82 1023.90 1024.02 1024.14 1024.26 1024.34 1024.46 1024.62 1024.86 1025.02 1025.18 1025.34 1025.50 1025.66 1025.82 1025.98 1026.10 1026.22 1026.34 1026.34 1026.46 1026.46 1026.54 1026.62 1026.66 1026.70
1015.42 1015.66 1015.90 1016.18 1016.46 1016.74 1017.02 1017.34 1017.62 1017.90 1018.14 1018.38 1018.62 1018.90 1019.14 1019.42 1019.70 1019.94 1020.18 1020.46 1020.62 1020.82 1020.94 1021.10 1021.26 1021.38 1021.50 1021.62 1021.70 1021.78 1021.90 1022.06 1022.26 1022.46 1022.70 1022.90 1023.06 1023.26 1023.42 1023.58 1023.70 1023.74 1023.78 1023.86 1023.94 1024.06 1024.18 1024.26 1024.34 1024.50 1024.66 1024.90 1025.06 1025.22 1025.42 1025.58 1025.74 1025.90 1026.02 1026.18 1026.34 1026.38 1026.46 1026.54 1026.62 1026.70 1026.74 1026.74 1026.74
1015.30 1015.58 1015.78 1016.06 1016.34 1016.62 1016.90 1017.22 1017.50 1017.74 1018.02 1018.26 1018.54 1018.78 1019.02 1019.34 1019.62 1019.86 1020.10 1020.34 1020.54 1020.70 1020.82 1020.98 1021.18 1021.30 1021.46 1021.54 1021.62 1021.74 1021.90 1022.06 1022.18 1022.38 1022.62 1022.82 1023.02 1023.18 1023.34 1023.54 1023.66 1023.78 1023.86 1023.90 1023.98 1024.06 1024.18 1024.30 1024.38 1024.50 1024.66 1024.90 1025.02 1025.22 1025.38 1025.58 1025.74 1025.94 1026.10 1026.26 1026.38 1026.46 1026.58 1026.62 1026.70 1026.78 1026.86 1026.86 1026.74
1015.18 1015.46 1015.74 1015.94 1016.22 1016.50 1016.78 1017.06 1017.38 1017.62 1017.90 1018.14 1018.42 1018.70 1018.94 1019.22 1019.50 1019.74 1020.02 1020.30 1020.46 1020.62 1020.74 1020.90 1021.10 1021.26 1021.38 1021.46 1021.62 1021.74 1021.90 1022.06 1022.18 1022.34 1022.54 1022.74 1022.94 1023.10 1023.30 1023.50 1023.66 1023.78 1023.86 1023.90 1023.98 1024.10 1024.18 1024.30 1024.42 1024.50 1024.66 1024.90 1025.02 1025.18 1025.34 1025.58 1025.74 1025.94 1026.14 1026.30 1026.42 1026.54 1026.66 1026.74 1026.78 1026.90 1026.94 1027.02 1026.90
1015.10 1015.38 1015.62 1015.90 1016.14 1016.38 1016.66 1016.98 1017.26 1017.54 1017.78 1018.06 1018.34 1018.58 1018.86 1019.14 1019.46 1019.74 1020.02 1020.22 1020.42 1020.54 1020.70 1020.90 1021.06 1021.22 1021.30 1021.38 1021.50 1021.70 1021.90 1022.02 1022.18 1022.34 1022.50 1022.70 1022.90 1023.02 1023.26 1023.46 1023.66 1023.74 1023.86 1023.90 1024.02 1024.10 1024.22 1024.30 1024.38 1024.50 1024.66 1024.90 1025.02 1025.18 1025.30 1025.54 1025.74 1026.02 1026.18 1026.34 1026.42 1026.58 1026.70 1026.82 1026.90 1026.94 1027.02 1027.10 1027.14
Wind_Speed
5 5 4 4 4 3 3 4 5 5 4 4 4 4 3 3 3 3 3 3 3 3 4 4 5 5 5 6 6 6 6 6 7 8 9 9 8 8 9 9 9 9 9 8 7 6 6 6 5 4 4 4 4 4 4 4 5 5 6 6 5 5 5 6 6 6 6 6 5
6 5 5 4 4 4 4 4 5 5 5 4 4 4 3 3 3 3 3 3 3 4 4 5 5 6 6 6 6 6 6 6 7 8 9 9 9 9 9 9 9 9 9 8 7 6 5 5 5 4 4 4 4 4 4 4 5 5 6 7 5 4 4 5 5 5 5 5 4
6 5 4 4 4 4 4 5 5 6 6 4 4 4 3 3 3 3 3 3 4 5 5 5 6 6 7 7 6 6 6 7 7 8 8 8 8 8 8 8 8 9 8 7 6 5 4 4 4 4 4 4 4 4 4 4 5 5 5 5 4 3 3 4 4 4 4 4 4
6 6 5 5 5 5 5 5 6 6 6 5 4 4 3 3 3 3 3 4 4 5 5 6 6 6 6 7 6 6 7 7 8 8 8 8 8 8 8 8 8 8 7 7 6 5 4 4 3 3 4 4 5 5 4 4 4 4 4 3 3 3 4 4 3 3 3 3 3
6 6 5 5 6 6 6 7 7 7 6 4 4 4 3 3 3 3 4 4 4 5 6 7 6 6 6 7 8 8 8 8 8 8 8 8 9 9 9 9 8 7 7 6 6 6 5 5 3 3 4 4 4 4 4 5 5 4 4 3 3 3 4 3 3 3 3 3 3
6 6 5 5 6 6 7 7 7 7 5 5 5 4 4 3 3 4 4 4 4 6 7 8 8 7 8 8 8 8 8 8 7 7 8 8 8 8 8 8 7 7 6 6 6 6 6 5 4 3 4 4 4 5 5 6 5 5 4 4 3 3 3 3 3 3 3 4 4
7 7 6 6 7 7 8 8 7 6 6 5 6 6 5 4 4 4 5 4 4 5 6 7 7 8 8 8 8 8 7 7 7 7 8 7 7 7 7 7 7 6 6 6 6 6 5 5 4 4 4 4 4 5 5 6 5 5 4 4 3 3 3 3 3 3 4 5 5
9 8 8 8 8 9 9 9 8 7 6 5 5 6 5 5 5 5 5 4 4 4 4 5 7 8 8 8 8 7 7 7 7 7 7 7 7 7 7 6 6 6 6 6 6 5 5 4 4 3 3 4 4 4 5 6 6 6 5 4 3 3 3 3 3 4 5 6 6
8 8 8 9 9 10 10 10 9 8 7 6 6 6 6 6 5 5 4 3 3 4 4 5 7 7 8 8 7 7 7 7 7 7 7 7 7 6 6 5 5 4 4 4 5 5 5 4 3 3 3 3 4 5 6 7 7 6 5 4 4 3 3 3 3 4 5 6 7
8 8 8 9 9 10 10 10 10 9 8 7 6 6 6 6 5 4 3 3 4 4 5 5 6 7 7 7 7 7 6 6 6 6 6 6 6 6 5 4 4 4 3 3 3 4 4 4 3 3 3 3 4 5 6 7 7 6 5 4 4 4 4 4 4 5 6 6 7
9 9 9 9 10 11 11 10 10 9 8 8 7 6 5 6 5 4 3 3 5 6 6 6 6 7 7 7 7 7 6 6 6 6 6 6 6 5 5 4 4 4 3 2 3 3 3 3 4 4 4 4 5 6 7 7 7 6 5 4 4 5 5 5 6 6 6 7 8
9 9 9 10 11 11 11 10 9 9 8 8 8 6 5 5 4 4 4 5 6 6 6 6 6 6 6 6 6 6 6 6 6 6 6 5 5 5 5 4 4 4 3 3 2 2 3 3 4 4 5 5 5 5 6 7 7 6 6 5 5 6 6 6 7 6 6 6 8
10 9 9 11 11 11 11 10 9 8 8 8 7 6 5 4 5 5 5 6 7 6 6 6 6 6 6 6 6 6 6 6 6 5 5 5 5 5 5 4 4 4 3 3 2 3 3 4 5 6 6 6 5 6 6 7 7 7 6 6 6 6 7 7 7 6 6 7 7
10 10 10 11 12 11 11 10 9 8 8 7 7 6 5 5 5 5 6 7 7 7 7 6 6 6 6 6 6 6 6 5 5 5 5 4 4 4 4 4 4 4 3 2 2 3 4 5 5 6 6 6 6 6 6 7 6 7 7 7 7 7 7 8 7 7 7 7 7
11 10 10 11 11 11 10 10 8 8 8 8 6 6 5 5 5 5 6 7 7 7 6 6 6 6 7 6 6 5 5 5 5 5 4 4 4 4 4 4 4 3 3 2 2 3 4 5 6 6 6 7 7 7 7 7 7 7 7 7 7 7 8 7 7 7 7 7 7
11 10 10 11 11 11 10 9 8 7 8 8 7 6 5 5 5 6 7 8 7 7 7 7 7 6 6 6 5 5 4 4 4 4 4 4 4 4 4 4 4 4 3 3 3 4 4 5 6 6 7 7 7 7 7 7 7 7 7 7 7 8 8 8 7 7 7 7 7
11 11 10 10 11 11 10 9 8 7 8 8 8 7 6 5 5 6 7 8 7 7 7 7 7 6 5 5 4 4 3 3 3 3 3 3 4 4 4 4 4 4 4 4 4 5 5 6 6 6 7 7 7 7 7 7 7 7 7 7 7 7 7 7 7 7 7 7 7
11 11 11 11 11 11 11 11 9 9 9 9 8 7 6 6 6 7 8 8 8 8 8 8 6 6 5 4 4 3 3 3 3 3 3 3 4 5 5 5 4 4 4 5 5 6 6 7 7 7 7 7 7 7 8 8 8 8 8 7 7 7 7 7 7 7 7 7 7
12 12 12 12 12 12 12 12 11 10 10 10 9 8 8 8 8 8 9 9 9 9 9 8 7 6 5 5 4 3 3 3 3 3 3 4 5 5 5 5 5 5 5 6 6 7 7 7 7 7 7 7 7 8 8 8 8 8 8 7 7 7 7 7 7 7 7 7 8
12 12 12 13 13 12 12 12 11 11 10 10 9 9 9 9 9 10 10 10 9 9 9 9 8 7 6 5 4 4 3 3 3 4 4 4 5 5 5 5 5 6 6 6 7 7 7 7 7 8 8 8 8 8 8 8 8 8 8 7 8 8 8 8 8 8 8 8 8
12 12 12 13 13 13 13 12 12 11 11 10 10 10 10 10 10 11 11 11 10 10 9 9 8 8 7 6 5 5 4 4 4 4 5 5 6 6 6 6 6 6 6 6 7 7 7 7 8 8 8 8 8 8 8 8 8 8 8 8 8 8 9 9 9 9 9 9 9
13 12 12 13 13 13 13 12 12 12 11 11 10 10 10 10 10 11 11 10 10 9 8 8 8 7 7 6 6 6 5 4 4 4 5 6 6 6 6 6 6 7 7 7 7 7 7 8 8 8 8 8 8 8 8 8 8 8 8 8 8 8 9 9 9 9 9 9 9
13 13 13 13 13 13 13 13 12 12 12 12 11 10 10 10 10 10 10 10 10 9 7 6 6 7 7 7 7 6 5 4 4 5 6 7 7 7 6 6 7 7 7 6 7 7 7 7 7 8 8 8 8 8 8 8 8 8 8 8 8 8 8 8 8 8 8 8 8
14 14 13 12 13 14 13 13 13 13 13 12 11 11 10 10 10 10 10 10 10 8 7 6 6 7 7 7 7 6 5 5 6 7 7 7 7 7 7 7 7 6 6 6 7 7 7 6 6 7 7 7 7 7 7 8 7 8 8 8 8 8 8 8 8 8 8 7 7
15 14 13 13 14 14 13 13 13 13 13 13 12 12 11 11 11 11 10 10 9 8 8 7 6 6 6 6 6 6 6 6 7 8 8 8 8 7 7 6 6 5 5 6 11 12 11 9 7 6 6 6 7 7 7 7 7 7 7 7 8 8 8 8 8 8 7 7 6
15 14 14 14 14 14 14 14 13 14 14 14 13 13 12 12 11 11 10 10 9 8 8 7 6 6 5 5 5 6 6 6 7 8 8 8 8 7 6 5 5 4 5 9 13 15 15 13 11 9 7 6 6 7 7 6 7 7 7 7 7 7 8 8 7 7 6 6 5
15 15 15 14 14 15 14 14 14 14 14 15 14 14 13 13 12 11 11 9 8 7 6 5 5 5 5 4 5 6 6 6 7 8 8 9 8 8 6 5 4 4 6 11 15 16 16 16 14 12 9 6 6 6 6 6 6 6 6 6 6 7 7 8 8 7 6 5 4
16 15 15 15 15 15 14 14 14 14 14 15 15 14 14 13 13 12 11 9 7 6 5 4 4 4 4 4 5 6 6 7 7 7 8 9 9 8 6 5 4 5 8 13 15 16 16 17 16 14 11 8 6 6 6 6 6 5 5 5 5 6 7 7 7 7 6 5 4
17 16 16 16 16 15 15 14 14 14 14 15 15 14 14 14 13 13 12 10 8 6 5 4 4 3 3 4 5 6 6 6 7 7 8 9 8 7 6 5 5 7 11 15 16 16 16 17 17 16 14 10 7 5 5 5 5 4 4 4 4 5 6 6 6 6 5 5 4
17 17 17 17 16 16 15 15 15 14 14 14 14 14 14 14 13 13 12 11 8 6 4 4 3 3 3 4 5 5 5 6 7 7 8 9 8 8 7 6 5 7 11 16 16 16 16 16 16 16 15 12 8 6 5 4 4 4 4 4 4 5 5 5 5 5 5 4 5
17 17 17 17 16 16 16 16 15 15 14 13 14 14 14 13 13 13 12 11 8 6 5 4 4 4 4 4 4 5 5 6 7 8 8 9 9 8 7 6 6 8 11 16 16 16 16 16 16 16 15 13 8 5 4 4 4 4 4 4 4 5 5 5 5 5 5 5 6
17 17 17 17 17 17 16 16 15 15 14 14 15 14 14 14 13 12 11 10 8 7 6 5 5 4 4 4 4 4 5 6 7 8 8 9 9 8 7 7 6 8 11 16 16 16 16 16 16 16 15 13 8 5 4 4 4 4 4 5 5 5 4 4 4 4 5 5 6
18 18 17 17 17 17 17 16 16 15 15 15 15 15 14 14 13 12 11 9 8 7 6 6 6 5 5 5 4 5 5 6 8 9 10 10 9 8 7 6 6 8 12 16 16 16 16 16 16 16 15 13 8 5 4 4 4 4 4 4 4 4 4 4 3 3 4 4 5
18 18 17 17 17 17 17 17 16 15 15 15 15 15 14 14 13 12 11 10 8 6 6 6 6 6 5 5 5 5 5 6 8 9 10 10 9 8 7 5 5 9 13 16 16 16 16 16 16 15 14 12 7 5 5 5 4 5 5 5 4 4 4 4 4 4 3 3 4
18 18 17 17 17 17 17 17 16 16 16 15 15 15 14 14 13 12 11 10 9 7 6 5 5 5 5 5 5 5 6 7 9 9 10 10 9 8 7 6 6 10 15 16 16 16 16 16 16 15 13 10 6 5 5 6 5 6 6 6 6 6 5 5 5 4 4 4 4
18 18 18 17 17 17 17 17 17 16 16 16 15 15 14 13 13 12 11 11 10 8 7 6 6 6 6 5 5 5 6 8 9 10 10 10 9 8 7 6 6 11 15 17 16 16 16 16 16 15 12 8 5 5 5 6 5 6 6 6 6 5 5 5 4 4 4 4 4
18 18 18 17 18 18 18 17 17 17 16 16 15 15 14 13 12 12 12 11 10 9 9 8 7 7 6 6 5 5 6 8 10 10 11 10 10 9 8 7 7 10 14 17 17 16 16 16 15 13 10 6 5 5 5 5 5 5 6 6 5 5 4 4 3 4 4 4 4
18 18 18 17 18 18 18 18 17 17 16 16 15 14 14 13 12 12 12 11 10 9 9 8 7 7 7 7 6 7 7 9 10 10 11 10 10 9 8 8 7 9 12 16 16 16 16 16 15 13 9 5 5 5 5 5 5 5 5 5 4 4 3 3 3 3 4 4 4
18 18 17 17 17 18 18 18 17 17 16 16 15 14 13 12 11 11 11 11 9 9 9 8 7 7 7 7 7 7 8 9 10 10 10 10 10 10 10 8 7 8 10 15 16 16 16 15 14 13 10 5 5 5 5 5 5 5 5 5 4 3 3 3 3 3 3 3 5
18 18 17 17 17 17 18 17 17 16 15 15 15 14 14 13 12 11 11 10 9 9 8 8 8 7 7 8 7 7 8 8 9 9 10 10 11 12 12 9 8 8 10 14 16 16 16 15 14 13 10 5 4 4 5 5 5 5 5 4 4 3 3 2 3 3 3 2 3
18 17 17 17 17 17 17 17 17 16 15 15 15 14 13 12 12 11 11 9 9 8 8 7 8 8 8 8 7 7 8 8 8 9 10 11 11 12 12 9 8 8 9 12 15 16 16 15 14 13 10 6 4 4 5 5 5 5 5 5 4 4 3 3 3 2 2 2 1
Wind_Direction
115 118 122 126 124 120 113 107 104 103 102 103 104 103 103 104 105 109 111 110 107 102 98 95 96 96 96 95 95 93 92 92 97 101 103 103 103 104 106 107 107 106 104 102 98 93 91 91 91 92 92 93 93 90 87 85 84 81 80 78 72 64 61 65 66 64 60 56 53
121 123 126 127 123 116 109 104 102 102 103 104 106 108 110 112 115 115 114 109 103 100 99 97 99 100 101 101 100 97 94 91 93 97 101 103 105 105 106 105 104 102 100 97 95 93 92 92 93 94 93 92 90 88 85 82 82 82 80 79 77 68 61 63 65 65 63 60 58
125 127 128 128 125 119 112 107 106 107 107 108 110 113 115 117 116 114 109 103 97 96 98 101 103 105 106 106 104 101 97 94 92 92 94 97 99 100 101 99 96 93 90 89 88 88 89 90 94 97 98 96 94 91 88 84 82 81 81 80 79 72 66 62 60 60 61 62 61
127 129 131 131 127 122 116 112 112 112 112 112 111 111 111 111 109 106 101 93 91 94 99 105 107 109 110 111 108 104 100 96 93 91 90 90 90 91 91 91 90 88 86 85 83 81 78 79 87 94 97 96 94 93 90 86 81 79 78 74 72 69 67 63 59 59 61 64 63
130 133 135 134 129 122 117 114 114 114 113 112 110 109 110 108 106 102 97 92 95 101 106 109 112 114 114 112 108 104 99 95 93 92 91 90 90 90 91 92 93 93 92 89 85 80 76 74 77 82 86 89 90 89 87 86 83 81 77 72 71 71 71 70 67 67 69 72 70
134 135 134 130 125 119 114 113 113 112 112 111 112 114 115 116 111 108 106 105 105 106 107 110 112 113 112 109 105 101 97 94 94 94 93 93 93 93 94 94 96 97 97 94 90 85 81 77 76 76 77 82 84 85 85 85 86 85 83 80 78 81 83 85 85 85 85 85 80
139 139 136 130 123 117 113 111 110 109 110 111 116 120 122 120 115 113 113 112 107 105 106 109 110 110 109 107 104 102 100 99 97 96 95 95 95 95 95 96 97 98 99 99 95 91 86 81 79 76 74 76 80 80 81 84 84 85 84 83 81 85 90 96 99 98 95 90 84
141 141 138 132 124 118 114 113 112 111 112 115 121 124 124 120 116 114 112 108 103 103 104 106 108 110 110 110 109 108 106 103 101 98 97 97 96 95 95 95 95 97 99 102 101 98 93 87 83 80 78 80 84 86 87 88 88 88 88 89 87 89 94 103 104 102 97 92 86
142 140 136 130 124 119 117 115 114 115 117 121 125 126 124 119 116 113 110 105 102 100 99 102 105 107 107 107 106 104 103 102 101 101 100 99 98 97 96 94 94 94 96 101 105 105 103 96 92 90 90 93 96 98 98 98 97 98 98 101 103 103 103 105 103 99 95 91 87
142 140 135 128 123 120 118 116 117 118 121 126 127 125 122 119 116 113 110 107 98 95 94 97 98 98 96 94 93 91 90 91 93 95 98 100 102 102 102 101 100 98 96 97 103 105 105 104 104 105 106 107 108 107 107 107 108 108 109 110 111 108 102 96 93 92 90 88 87
142 140 136 129 125 122 119 118 119 122 126 130 128 123 120 119 118 116 112 102 96 96 96 97 95 93 92 90 89 88 86 85 85 87 91 96 101 104 105 106 105 102 100 95 97 101 104 108 111 113 113 110 110 111 112 112 113 113 113 111 108 103 97 91 89 88 88 88 86
143 140 135 129 125 123 121 121 123 126 129 132 128 124 121 122 124 121 114 103 100 98 97 94 93 92 92 93 92 91 89 86 85 85 87 90 96 99 101 101 100 99 97 94 96 101 107 112 114 113 111 107 108 111 114 116 115 114 112 108 103 99 96 92 89 88 88 87 86
144 140 134 129 126 124 123 125 126 129 131 132 129 127 126 130 130 124 114 106 102 99 94 88 86 85 86 87 89 90 90 90 89 89 90 91 94 96 96 96 96 97 97 98 101 107 112 114 113 111 109 107 109 113 115 115 113 112 109 106 101 98 95 93 90 89 88 87 87
145 140 134 130 128 127 126 127 129 130 131 129 129 129 131 134 131 123 114 107 102 98 94 88 83 81 81 81 85 89 92 94 95 96 96 96 98 98 99 99 100 101 102 106 109 112 114 114 113 112 111 111 111 112 112 111 110 108 107 104 101 99 97 94 93 92 91 90 90
145 140 135 131 130 129 128 129 129 130 131 129 131 133 136 136 130 121 112 105 101 97 94 90 86 83 82 83 87 91 95 99 102 103 103 103 104 104 106 106 107 109 111 114 112 112 112 112 112 112 112 111 109 108 106 105 104 104 103 103 101 100 98 96 95 94 94 95 94
146 142 137 132 131 130 129 130 130 130 131 132 136 139 140 137 129 119 110 105 101 98 95 92 91 90 89 90 92 95 99 102 106 108 111 113 113 113 112 112 114 117 118 116 110 106 105 107 108 108 107 106 104 102 101 99 98 98 97 98 98 98 98 98 98 98 98 98 98
146 143 139 134 132 131 130 131 131 132 133 135 139 142 143 138 129 118 110 106 104 101 99 97 98 100 102 101 100 100 103 107 109 115 120 124 123 120 119 119 122 122 119 113 106 101 99 99 99 99 99 98 98 97 96 94 94 92 92 92 94 95 97 98 98 98 98 97 97
148 145 141 137 134 132 132 133 133 134 135 138 142 145 144 139 129 118 111 109 109 108 106 105 106 109 111 112 111 112 115 118 124 131 135 135 129 125 123 124 123 119 113 106 102 99 96 94 92 91 91 92 92 92 92 91 90 89 87 87 89 90 92 92 93 92 91 88 87
149 147 144 140 137 134 134 135 136 136 138 141 144 145 144 140 129 121 116 116 116 117 117 118 119 118 118 120 122 127 131 135 146 150 147 138 129 125 123 121 116 110 104 99 97 95 94 91 89 88 87 87 88 88 87 87 86 84 82 80 79 79 80 81 81 80 79 77 75
151 149 146 142 139 137 136 137 138 139 140 142 144 146 145 141 131 125 123 125 126 127 129 130 129 127 127 130 136 143 151 159 162 159 147 133 124 120 117 113 107 103 99 96 95 93 92 90 89 87 87 86 86 85 85 84 82 79 76 74 71 70 70 71 72 72 71 70 69
152 150 147 143 140 139 139 140 140 140 140 141 145 148 147 142 134 129 128 130 132 135 136 137 135 135 138 145 152 161 169 176 170 156 138 122 115 112 109 106 102 99 97 95 94 93 92 90 89 88 87 86 86 85 85 84 82 80 77 74 71 69 69 69 70 69 69 68 68
153 151 147 143 141 141 141 141 141 140 140 142 146 148 148 142 135 132 131 132 135 138 140 140 140 144 149 158 165 171 176 180 165 142 123 111 108 105 102 99 97 95 93 92 92 92 91 91 90 90 89 89 88 88 88 88 87 85 82 80 78 75 73 72 71 71 71 70 71
153 150 147 143 142 142 141 141 140 140 140 142 146 149 148 143 136 134 133 135 137 140 142 145 150 156 162 169 172 174 172 164 141 120 109 105 102 99 94 90 88 88 88 89 91 92 92 92 92 92 93 93 93 92 92 92 92 92 90 88 85 82 80 78 76 75 75 74 75
151 149 147 145 144 143 142 141 140 140 141 143 147 149 147 142 138 137 137 139 140 143 148 155 163 168 171 173 171 166 156 141 121 111 106 103 99 94 88 84 84 86 89 94 99 99 98 96 96 96 96 96 96 96 95 95 95 96 96 96 94 91 88 85 83 82 82 81 82
150 148 147 146 145 145 143 142 141 141 142 145 148 149 147 144 142 141 141 142 144 149 156 165 171 173 172 166 159 150 138 125 116 112 108 104 99 94 89 87 89 93 100 108 111 109 106 103 101 100 99 99 99 98 97 96 98 100 102 104 103 101 97 93 91 89 88 88 89
150 148 147 147 146 146 145 143 142 143 144 147 150 150 149 147 146 144 143 143 147 154 161 167 169 167 161 152 144 136 128 120 117 115 112 107 101 97 95 95 97 102 112 119 118 115 112 108 107 104 103 102 101 100 99 98 101 103 106 108 109 109 107 104 100 98 95 94 94
150 150 149 148 148 147 146 145 144 145 147 150 152 152 151 150 147 146 145 145 150 156 161 164 161 156 150 142 137 132 127 122 120 117 114 110 107 105 103 103 106 112 120 123 121 120 117 115 113 110 106 103 104 105 107 107 106 107 108 109 109 110 110 111 110 109 107 105 105
152 151 151 150 149 149 148 147 147 148 150 153 154 154 153 151 148 146 146 147 152 157 160 159 153 148 142 139 136 133 129 126 123 119 115 111 110 110 111 114 117 124 126 126 124 123 122 121 120 117 113 107 107 109 111 113 112 111 109 107 104 105 107 111 115 118 119 121 118
153 153 152 152 151 150 149 149 150 152 153 155 155 154 153 151 149 147 147 150 154 158 158 153 144 139 138 141 137 131 128 125 122 118 114 112 112 114 117 122 125 128 129 129 127 127 126 126 124 122 119 115 113 115 116 118 117 115 111 106 102 102 104 109 114 118 120 120 107
154 154 154 154 153 152 152 152 153 154 155 155 154 153 152 151 150 150 151 154 158 159 154 141 133 135 139 141 133 128 125 124 121 119 117 116 117 120 123 128 131 132 132 132 131 130 129 129 127 126 124 122 119 118 120 121 119 117 114 110 107 107 107 109 112 114 113 108 98
155 156 157 156 155 154 154 154 155 156 156 155 155 154 153 152 152 153 155 159 160 156 146 133 134 137 140 133 126 125 126 126 123 121 120 121 123 125 128 131 134 135 135 135 134 132 132 131 130 129 128 128 124 122 122 121 120 119 118 116 114 114 114 114 115 116 114 109 105
157 158 158 158 157 156 155 155 156 157 158 156 155 154 154 153 154 156 158 161 159 153 143 138 142 142 138 129 125 127 129 129 126 125 123 124 126 127 129 133 137 139 139 139 137 135 134 133 132 132 132 132 128 124 121 117 117 116 116 115 116 117 117 117 119 120 120 118 117
158 159 160 159 158 157 156 156 158 159 159 158 157 156 155 155 155 157 159 163 159 154 149 148 149 147 143 139 137 136 136 133 128 125 124 125 127 129 131 135 140 144 144 142 140 138 137 136 135 135 134 134 129 121 114 109 107 105 105 105 105 106 105 104 104 108 111 116 120
159 160 161 160 158 157 157 157 159 159 160 159 159 158 157 155 156 158 160 162 159 156 154 155 154 151 148 146 146 145 142 135 127 125 125 127 129 131 133 139 146 150 149 146 143 142 140 139 138 137 136 133 126 115 106 103 99 96 93 90 84 79 76 76 76 78 82 90 102
161 161 161 161 159 158 157 158 159 160 161 162 161 160 158 157 157 159 159 159 158 158 159 160 155 152 149 150 151 149 143 135 129 128 129 131 132 133 136 144 151 154 153 148 147 145 143 141 140 138 136 131 122 112 106 104 101 97 93 88 81 75 71 67 64 62 62 68 82
162 162 162 161 160 159 159 159 160 161 162 163 163 161 159 158 158 158 157 156 158 161 164 162 156 152 152 154 156 152 145 137 133 133 134 135 135 137 141 149 155 157 155 151 150 148 146 144 142 139 136 128 118 110 109 107 106 103 99 94 89 84 79 74 68 60 55 54 66
163 163 162 161 161 160 160 160 161 163 164 165 164 162 159 158 158 157 156 156 161 165 167 163 158 156 157 160 160 156 147 140 138 138 138 139 139 141 145 151 157 159 157 155 153 151 149 146 144 140 135 122 116 112 112 112 110 108 104 101 98 94 90 84 76 67 59 53 60
163 163 163 162 161 161 161 161 162 163 164 165 164 162 159 158 157 156 157 159 164 168 169 163 159 159 160 162 160 154 147 142 142 142 142 143 143 145 148 152 158 160 159 158 156 154 151 148 145 142 137 122 119 118 118 116 115 113 111 109 107 103 97 90 83 75 70 66 75
163 163 163 162 162 162 162 162 163 164 164 164 162 161 159 158 157 157 158 161 166 169 168 162 159 160 161 163 159 153 148 145 146 145 145 145 147 149 150 152 157 160 160 160 158 156 154 151 148 145 141 127 124 122 121 120 118 117 116 115 114 109 103 95 90 85 84 83 94
163 163 163 163 162 162 162 162 163 163 163 163 161 160 159 157 156 156 158 162 168 170 167 160 159 160 162 163 158 153 149 148 148 147 147 147 149 151 152 152 156 160 161 162 161 159 157 154 151 149 144 130 126 123 122 120 119 119 120 120 120 118 113 103 99 96 95 90 96
162 163 164 163 163 162 162 161 162 162 162 161 160 159 157 155 155 156 159 164 169 169 166 159 159 161 163 163 158 153 150 150 150 149 148 149 150 152 153 152 156 160 162 163 163 162 160 158 155 152 148 136 127 123 122 120 121 123 126 129 128 128 124 117 109 107 107 104 93